Location: Hilde
(52.9479°N, 6.4449°E)
Time: 15:47:41
(UTC+00:00)

USA 290 - Pass Details

Date: 15 May 2026
Orbit: 396 x 415 km, 73.6° (Epoch: 30 October)

Event Time Altitude Azimuth Distance (km) Brightness Sun altitude
Exits shadow 21:18:07 18° 185° (S) 1,061 3.8 -12.5°
Maximum altitude 21:20:15 53° 112° (ESE) 489 2.2 -12.7°
Drops below altitude 10° 21:23:20 10° 34° (NE) 1,436 5.3 -12.9°
Sets 21:25:23 0° 30° (NNE) 2,296 6.4 -13.1°
